Time,TemperatureF,DewpointF,PressureIn,WindDirection,WindDirectionDegrees,WindSpeedMPH,WindSpeedGustMPH,Humidity,HourlyPrecipIn,Conditions,Clouds,dailyrainin,SoftwareType,DateUTC
2013-02-12 00:00:00,58.6,58.6,29.91,ENE,57,0.0,2.7,100,0.00,,SKC,0.28,VWS V13.01,2013-02-12 06:00:00,
2013-02-12 00:05:00,58.6,58.6,29.91,ENE,65,3.1,3.1,100,0.00,,SKC,0.00,VWS V13.01,2013-02-12 06:05:00,
2013-02-12 00:10:00,58.6,58.6,29.91,ENE,68,5.8,5.8,100,0.00,,SKC,0.00,VWS V13.01,2013-02-12 06:10:00,
2013-02-12 00:15:00,58.6,58.6,29.91,ENE,68,2.2,3.1,100,0.00,,SKC,0.00,VWS V13.01,2013-02-12 06:15:00,
2013-02-12 00:20:00,58.6,58.6,29.91,ENE,66,4.9,4.9,100,0.00,,SKC,0.00,VWS V13.01,2013-02-12 06:20:00,
2013-02-12 00:25:00,58.6,58.6,29.91,NE,53,5.4,6.3,100,0.00,,SKC,0.00,VWS V13.01,2013-02-12 06:25:00,
2013-02-12 00:30:00,58.5,58.5,29.91,ENE,77,5.8,5.8,100,0.00,,SKC,0.00,VWS V13.01,2013-02-12 06:30:00,
2013-02-12 00:35:00,58.6,58.6,29.91,ENE,75,6.7,6.7,100,0.00,,SKC,0.00,VWS V13.01,2013-02-12 06:35:00,
2013-02-12 00:40:00,58.6,58.6,29.88,ENE,76,0.0,3.6,100,0.00,,SKC,0.00,VWS V13.01,2013-02-12 06:40:00,
2013-02-12 00:45:00,58.6,58.6,29.88,ENE,76,4.0,4.0,100,0.00,,SKC,0.00,VWS V13.01,2013-02-12 06:45:00,
2013-02-12 00:50:00,58.6,58.6,29.88,NE,38,2.7,3.1,100,0.00,,SKC,0.00,VWS V13.01,2013-02-12 06:50:00,
2013-02-12 00:55:00,58.6,58.6,29.91,ENE,70,2.7,5.8,100,0.00,,SKC,0.00,VWS V13.01,2013-02-12 06:55:00,
2013-02-12 01:00:00,58.6,58.6,29.91,ENE,57,3.6,3.6,100,0.00,,SKC,0.00,VWS V13.01,2013-02-12 07:00:00,
2013-02-12 01:05:00,58.6,58.6,29.91,NE,53,0.0,2.7,100,0.00,,SKC,0.00,VWS V13.01,2013-02-12 07:05:00,
2013-02-12 01:10:00,58.6,58.6,29.91,NNE,24,3.6,5.4,100,0.00,,SKC,0.00,VWS V13.01,2013-02-12 07:10:00,
2013-02-12 01:15:00,58.6,58.6,29.91,NNE,19,2.7,2.7,100,0.00,,SKC,0.00,VWS V13.01,2013-02-12 07:15:00,
2013-02-12 01:20:00,58.5,58.5,29.91,NE,53,4.9,4.9,100,0.00,,SKC,0.00,VWS V13.01,2013-02-12 07:20:00,
2013-02-12 01:25:00,58.5,58.5,29.91,ENE,57,3.1,4.0,100,0.00,,SKC,0.00,VWS V13.01,2013-02-12 07:25:00,
2013-02-12 01:30:00,58.5,58.5,29.91,NNE,26,0.0,3.6,100,0.00,,SKC,0.00,VWS V13.01,2013-02-12 07:30:00,
2013-02-12 01:35:00,58.5,58.5,29.91,ENE,72,3.1,7.6,100,0.00,,SKC,0.00,VWS V13.01,2013-02-12 07:35:00,
2013-02-12 01:40:00,58.5,58.5,29.91,SE,131,3.6,3.6,100,0.00,,SKC,0.00,VWS V13.01,2013-02-12 07:40:00,
2013-02-12 01:45:00,58.5,58.5,29.91,ENE,61,5.4,6.3,100,0.00,,SKC,0.00,VWS V13.01,2013-02-12 07:45:00,
2013-02-12 01:50:00,58.5,58.5,29.91,East,94,3.6,5.4,100,0.00,,SKC,0.00,VWS V13.01,2013-02-12 07:50:00,
2013-02-12 01:55:00,58.5,58.5,29.88,ENE,57,3.6,6.3,100,0.00,,SKC,0.00,VWS V13.01,2013-02-12 07:55:00,
2013-02-12 02:00:00,58.5,58.5,29.88,ENE,62,3.1,5.4,100,0.00,,SKC,0.00,VWS V13.01,2013-02-12 08:00:00,
2013-02-12 02:05:00,58.3,58.3,29.88,ENE,74,4.0,4.0,100,0.00,,SKC,0.00,VWS V13.01,2013-02-12 08:05:00,
2013-02-12 02:10:00,58.3,58.3,29.88,ENE,57,5.8,6.3,100,0.00,,SKC,0.00,VWS V13.01,2013-02-12 08:10:00,
2013-02-12 02:15:00,58.3,58.3,29.88,ENE,77,3.1,6.7,100,0.00,,SKC,0.00,VWS V13.01,2013-02-12 08:15:00,
2013-02-12 02:20:00,58.3,58.3,29.88,NE,53,7.6,8.7,100,0.00,,SKC,0.00,VWS V13.01,2013-02-12 08:20:00,
2013-02-12 02:25:00,58.3,58.3,29.88,East,87,3.1,5.4,100,0.00,,SKC,0.00,VWS V13.01,2013-02-12 08:25:00,
2013-02-12 02:30:00,58.3,58.3,29.88,ENE,64,5.4,6.3,100,0.00,,SKC,0.00,VWS V13.01,2013-02-12 08:30:00,
2013-02-12 02:35:00,58.3,58.3,29.88,East,80,7.6,7.6,100,0.00,,SKC,0.00,VWS V13.01,2013-02-12 08:35:00,
2013-02-12 02:40:00,58.3,58.3,29.88,ENE,65,2.7,7.6,100,0.00,,SKC,0.00,VWS V13.01,2013-02-12 08:40:00,
2013-02-12 02:45:00,58.3,58.3,29.88,ESE,110,4.9,6.3,100,0.00,,SKC,0.00,VWS V13.01,2013-02-12 08:45:00,
2013-02-12 02:50:00,58.3,58.3,29.88,East,79,7.2,7.6,100,0.00,,SKC,0.00,VWS V13.01,2013-02-12 08:50:00,
2013-02-12 02:55:00,58.3,58.3,29.88,ENE,78,6.3,6.3,100,0.00,,SKC,0.00,VWS V13.01,2013-02-12 08:55:00,
2013-02-12 03:00:00,58.1,58.1,29.88,ENE,60,5.8,8.1,100,0.00,,SKC,0.00,VWS V13.01,2013-02-12 09:00:00,
2013-02-12 03:05:00,58.1,58.1,29.88,North,353,4.0,5.4,100,0.00,,SKC,0.00,VWS V13.01,2013-02-12 09:05:00,
2013-02-12 03:10:00,58.1,58.1,29.88,East,79,5.4,6.3,100,0.00,,SKC,0.00,VWS V13.01,2013-02-12 09:10:00,
2013-02-12 03:15:00,58.1,58.1,29.88,ENE,68,6.3,8.1,100,0.00,,SKC,0.00,VWS V13.01,2013-02-12 09:15:00,
2013-02-12 03:20:00,58.1,58.1,29.88,ENE,67,5.8,8.3,100,0.00,,SKC,0.00,VWS V13.01,2013-02-12 09:20:00,
2013-02-12 03:25:00,58.1,58.1,29.88,East,79,5.4,8.7,100,0.00,,SKC,0.00,VWS V13.01,2013-02-12 09:25:00,
2013-02-12 03:30:00,58.1,58.1,29.88,NE,41,4.0,7.6,100,0.00,,SKC,0.00,VWS V13.01,2013-02-12 09:30:00,
2013-02-12 03:35:00,58.1,58.1,29.88,East,88,3.1,6.3,100,0.00,,SKC,0.00,VWS V13.01,2013-02-12 09:35:00,
2013-02-12 03:40:00,58.1,58.1,29.85,ENE,64,5.8,6.7,100,0.00,,SKC,0.00,VWS V13.01,2013-02-12 09:40:00,
2013-02-12 03:45:00,58.3,58.3,29.85,SE,134,4.0,5.8,100,0.00,,SKC,0.00,VWS V13.01,2013-02-12 09:45:00,
2013-02-12 03:50:00,58.3,58.3,29.85,East,79,5.8,7.6,100,0.00,,SKC,0.00,VWS V13.01,2013-02-12 09:50:00,
2013-02-12 03:55:00,58.3,58.3,29.85,East,90,4.9,8.1,100,0.00,,SKC,0.00,VWS V13.01,2013-02-12 09:55:00,
2013-02-12 04:00:00,58.3,58.3,29.85,ENE,64,4.0,7.6,100,0.00,,SKC,0.00,VWS V13.01,2013-02-12 10:00:00,
2013-02-12 04:05:00,58.3,58.3,29.85,ESE,113,3.6,3.6,100,0.00,,SKC,0.00,VWS V13.01,2013-02-12 10:05:00,
2013-02-12 04:10:00,58.3,58.3,29.85,ENE,63,3.1,5.8,100,0.00,,SKC,0.00,VWS V13.01,2013-02-12 10:10:00,
2013-02-12 04:15:00,58.3,58.0,29.85,East,97,8.3,8.3,99,0.00,,SKC,0.00,VWS V13.01,2013-02-12 10:15:00,
2013-02-12 04:20:00,58.3,58.3,29.85,NE,38,3.6,6.3,100,0.00,,SKC,0.00,VWS V13.01,2013-02-12 10:20:00,
2013-02-12 04:25:00,58.3,58.3,29.85,East,93,5.4,5.4,100,0.00,,SKC,0.00,VWS V13.01,2013-02-12 10:25:00,
2013-02-12 04:30:00,58.1,58.1,29.85,East,85,5.4,5.4,100,0.00,,SKC,0.00,VWS V13.01,2013-02-12 10:30:00,
2013-02-12 04:35:00,58.1,58.1,29.85,East,85,8.1,8.1,100,0.00,,SKC,0.00,VWS V13.01,2013-02-12 10:35:00,
2013-02-12 04:40:00,58.1,58.1,29.85,NE,48,3.6,4.9,100,0.00,,SKC,0.00,VWS V13.01,2013-02-12 10:40:00,
2013-02-12 04:45:00,58.1,58.1,29.85,East,90,2.7,5.8,100,0.00,,SKC,0.00,VWS V13.01,2013-02-12 10:45:00,
2013-02-12 04:50:00,58.1,58.1,29.85,ESE,105,5.8,8.7,100,0.00,,SKC,0.00,VWS V13.01,2013-02-12 10:50:00,
2013-02-12 04:55:00,58.1,58.1,29.85,East,83,3.6,6.3,100,0.00,,SKC,0.00,VWS V13.01,2013-02-12 10:55:00,
2013-02-12 05:00:00,58.1,58.1,29.85,East,83,5.4,5.4,100,0.00,,SKC,0.00,VWS V13.01,2013-02-12 11:00:00,
2013-02-12 05:05:00,58.1,58.1,29.85,ENE,68,5.4,7.6,100,0.00,,SKC,0.00,VWS V13.01,2013-02-12 11:05:00,
2013-02-12 05:10:00,57.9,57.9,29.85,NE,46,3.6,3.6,100,0.00,,SKC,0.00,VWS V13.01,2013-02-12 11:10:00,
2013-02-12 05:15:00,57.9,57.9,29.85,ESE,104,4.0,7.6,100,0.00,,SKC,0.00,VWS V13.01,2013-02-12 11:15:00,
2013-02-12 05:20:00,58.1,58.1,29.85,East,100,3.6,6.3,100,0.00,,SKC,0.00,VWS V13.01,2013-02-12 11:20:00,
2013-02-12 05:25:00,58.1,58.1,29.85,ENE,77,5.4,6.3,100,0.00,,SKC,0.00,VWS V13.01,2013-02-12 11:25:00,
2013-02-12 05:30:00,58.1,58.1,29.85,ESE,120,4.0,5.4,100,0.00,,SKC,0.00,VWS V13.01,2013-02-12 11:30:00,
2013-02-12 05:35:00,58.1,58.1,29.85,East,92,4.9,8.3,100,0.00,,SKC,0.00,VWS V13.01,2013-02-12 11:35:00,
2013-02-12 05:40:00,58.1,58.1,29.85,East,98,4.0,10.5,100,0.00,,SKC,0.00,VWS V13.01,2013-02-12 11:40:00,
2013-02-12 05:45:00,58.3,58.3,29.85,ENE,57,3.6,8.3,100,0.00,,SKC,0.00,VWS V13.01,2013-02-12 11:45:00,
2013-02-12 05:50:00,58.3,58.3,29.85,East,82,7.6,10.1,100,0.00,,SKC,0.00,VWS V13.01,2013-02-12 11:50:00,
2013-02-12 05:55:00,58.3,58.3,29.83,ESE,115,3.1,6.3,100,0.00,,SKC,0.00,VWS V13.01,2013-02-12 11:55:00,
2013-02-12 06:00:00,58.3,58.3,29.83,ESE,122,5.4,8.3,100,0.00,,SKC,0.00,VWS V13.01,2013-02-12 12:00:00,
2013-02-12 06:05:00,58.3,58.3,29.83,East,95,8.3,8.7,100,0.00,,SKC,0.00,VWS V13.01,2013-02-12 12:05:00,
2013-02-12 06:10:00,58.5,58.5,29.83,East,85,3.6,3.6,100,0.00,,SKC,0.00,VWS V13.01,2013-02-12 12:10:00,
2013-02-12 06:15:00,58.5,58.5,29.83,ESE,119,3.6,5.4,100,0.00,,SKC,0.00,VWS V13.01,2013-02-12 12:15:00,
2013-02-12 06:20:00,58.5,58.5,29.83,East,92,4.9,8.1,100,0.00,,SKC,0.00,VWS V13.01,2013-02-12 12:20:00,
2013-02-12 06:25:00,58.5,58.5,29.83,East,79,3.6,3.6,100,0.00,,SKC,0.00,VWS V13.01,2013-02-12 12:25:00,
2013-02-12 06:30:00,58.5,58.5,29.83,ESE,105,3.6,8.1,100,0.00,,SKC,0.00,VWS V13.01,2013-02-12 12:30:00,
2013-02-12 06:35:00,58.5,58.5,29.83,ENE,78,5.4,8.1,100,0.00,,SKC,0.00,VWS V13.01,2013-02-12 12:35:00,
2013-02-12 06:40:00,58.5,58.5,29.83,East,100,4.0,4.0,100,0.00,,SKC,0.00,VWS V13.01,2013-02-12 12:40:00,
2013-02-12 06:45:00,58.5,58.5,29.83,East,95,8.1,8.1,100,0.00,,SKC,0.00,VWS V13.01,2013-02-12 12:45:00,
2013-02-12 06:50:00,58.5,58.5,29.83,ESE,102,3.1,3.6,100,0.00,,SKC,0.00,VWS V13.01,2013-02-12 12:50:00,
2013-02-12 06:55:00,58.3,58.3,29.83,SE,130,5.8,6.3,100,0.00,,SKC,0.00,VWS V13.01,2013-02-12 12:55:00,
2013-02-12 07:00:00,58.5,58.5,29.83,ESE,112,4.5,4.5,100,0.00,,SKC,0.00,VWS V13.01,2013-02-12 13:00:00,
2013-02-12 07:05:00,58.5,58.5,29.83,ESE,116,3.1,5.8,100,0.00,,SKC,0.00,VWS V13.01,2013-02-12 13:05:00,
2013-02-12 07:10:00,58.5,58.5,29.83,ESE,104,4.0,4.0,100,0.00,,SKC,0.00,VWS V13.01,2013-02-12 13:10:00,
2013-02-12 07:15:00,58.5,58.5,29.83,ESE,114,2.2,5.8,100,0.00,,SKC,0.00,VWS V13.01,2013-02-12 13:15:00,
2013-02-12 07:20:00,58.5,58.5,29.83,ESE,113,5.4,5.4,100,0.00,,SKC,0.00,VWS V13.01,2013-02-12 13:20:00,
2013-02-12 07:25:00,58.3,58.3,29.80,SE,127,5.4,7.2,100,0.00,,SKC,0.00,VWS V13.01,2013-02-12 13:25:00,
2013-02-12 07:30:00,58.3,58.3,29.80,East,96,5.4,5.8,100,0.00,,SKC,0.00,VWS V13.01,2013-02-12 13:30:00,
2013-02-12 07:35:00,58.3,58.3,29.80,East,90,2.2,3.6,100,0.00,,SKC,0.00,VWS V13.01,2013-02-12 13:35:00,
2013-02-12 07:40:00,58.3,58.3,29.83,NE,53,4.9,4.9,100,0.00,,SKC,0.00,VWS V13.01,2013-02-12 13:40:00,
2013-02-12 07:45:00,58.5,58.5,29.83,ENE,57,4.9,5.8,100,0.00,,SKC,0.00,VWS V13.01,2013-02-12 13:45:00,
2013-02-12 07:50:00,58.5,58.5,29.83,ESE,116,3.1,3.1,100,0.00,,SKC,0.00,VWS V13.01,2013-02-12 13:50:00,
2013-02-12 07:55:00,58.5,58.5,29.83,East,91,2.7,2.7,100,0.00,,SKC,0.00,VWS V13.01,2013-02-12 13:55:00,
2013-02-12 08:00:00,58.6,58.6,29.83,ESE,109,3.1,3.1,100,0.00,,SKC,0.00,VWS V13.01,2013-02-12 14:00:00,
2013-02-12 08:05:00,58.6,58.6,29.83,East,80,5.8,5.8,100,0.00,,SKC,0.00,VWS V13.01,2013-02-12 14:05:00,
2013-02-12 08:10:00,58.8,58.8,29.80,East,89,2.7,5.8,100,0.00,,SKC,0.00,VWS V13.01,2013-02-12 14:10:00,
2013-02-12 08:15:00,58.8,58.8,29.80,ENE,64,4.0,4.0,100,0.00,,SKC,0.00,VWS V13.01,2013-02-12 14:15:00,
2013-02-12 08:20:00,59.0,59.0,29.80,East,98,2.2,2.7,100,0.00,,SKC,0.00,VWS V13.01,2013-02-12 14:20:00,
2013-02-12 08:25:00,59.2,59.2,29.83,East,93,4.5,4.5,100,0.00,,SKC,0.00,VWS V13.01,2013-02-12 14:25:00,
2013-02-12 08:30:00,59.2,58.9,29.83,ENE,57,3.1,3.1,99,0.00,,SKC,0.00,VWS V13.01,2013-02-12 14:30:00,
2013-02-12 08:35:00,59.4,59.1,29.83,ENE,75,3.1,5.4,99,0.00,,SKC,0.00,VWS V13.01,2013-02-12 14:35:00,
2013-02-12 08:40:00,59.4,58.5,29.83,ESE,107,3.1,3.1,97,0.00,,SKC,0.00,VWS V13.01,2013-02-12 14:40:00,
2013-02-12 08:45:00,59.5,59.0,29.83,NE,35,2.7,3.1,98,0.00,,SKC,0.00,VWS V13.01,2013-02-12 14:45:00,
2013-02-12 08:49:00,59.5,58.4,29.83,SE,125,2.2,4.0,96,0.00,,SKC,0.00,VWS V13.01,2013-02-12 14:49:00,
2013-02-12 08:54:00,59.5,58.4,29.83,ESE,117,2.7,3.1,96,0.00,,SKC,0.00,VWS V13.01,2013-02-12 14:54:00,
2013-02-12 08:59:00,59.5,58.1,29.83,ENE,74,4.9,5.8,95,0.00,,SKC,0.00,VWS V13.01,2013-02-12 14:59:00,
2013-02-12 09:04:00,59.5,58.4,29.83,NE,53,3.1,4.0,96,0.00,,SKC,0.00,VWS V13.01,2013-02-12 15:04:00,
2013-02-12 09:09:00,59.7,58.0,29.83,East,99,5.4,5.4,94,0.00,,SKC,0.00,VWS V13.01,2013-02-12 15:09:00,
2013-02-12 09:14:00,59.7,58.3,29.83,NE,45,2.7,2.7,95,0.00,,SKC,0.00,VWS V13.01,2013-02-12 15:14:00,
2013-02-12 09:19:00,59.7,58.0,29.83,East,93,2.7,2.7,94,0.00,,SKC,0.00,VWS V13.01,2013-02-12 15:19:00,
2013-02-12 09:24:00,59.9,58.8,29.83,East,100,3.6,5.8,96,0.00,,SKC,0.00,VWS V13.01,2013-02-12 15:24:00,
2013-02-12 09:29:00,59.9,58.5,29.83,ESE,115,3.1,3.1,95,0.00,,SKC,0.00,VWS V13.01,2013-02-12 15:29:00,
2013-02-12 09:34:00,59.9,58.8,29.83,ESE,123,5.4,5.8,96,0.00,,SKC,0.00,VWS V13.01,2013-02-12 15:34:00,
2013-02-12 09:39:00,59.7,58.0,29.83,ESE,107,3.6,4.0,94,0.00,,SKC,0.00,VWS V13.01,2013-02-12 15:39:00,
2013-02-12 09:44:00,59.7,58.6,29.83,ENE,65,3.1,4.0,96,0.00,,SKC,0.00,VWS V13.01,2013-02-12 15:44:00,
2013-02-12 09:49:00,59.7,59.4,29.83,ESE,112,4.9,8.3,99,0.00,,SKC,0.00,VWS V13.01,2013-02-12 15:49:00,
2013-02-12 09:54:00,59.7,59.7,29.83,ESE,109,3.6,3.6,100,0.08,,SKC,0.08,VWS V13.01,2013-02-12 15:54:00,
2013-02-12 09:59:00,59.7,59.7,29.83,ESE,108,5.4,6.3,100,0.08,,SKC,0.08,VWS V13.01,2013-02-12 15:59:00,
2013-02-12 10:04:00,59.7,59.7,29.83,ESE,104,4.0,4.0,100,0.08,,SKC,0.08,VWS V13.01,2013-02-12 16:04:00,
2013-02-12 10:09:00,59.7,59.7,29.83,East,96,5.4,5.4,100,0.08,,SKC,0.08,VWS V13.01,2013-02-12 16:09:00,
2013-02-12 10:14:00,59.9,59.9,29.83,East,85,6.3,6.3,100,0.08,,SKC,0.08,VWS V13.01,2013-02-12 16:14:00,
2013-02-12 10:19:00,59.9,59.9,29.83,SE,124,7.6,8.1,100,0.08,,SKC,0.08,VWS V13.01,2013-02-12 16:19:00,
2013-02-12 10:24:00,59.9,59.9,29.80,ESE,116,4.0,5.8,100,0.08,,SKC,0.08,VWS V13.01,2013-02-12 16:24:00,
2013-02-12 10:29:00,59.9,59.9,29.80,East,96,8.1,8.1,100,0.08,,SKC,0.08,VWS V13.01,2013-02-12 16:29:00,
2013-02-12 10:34:00,60.1,60.1,29.80,East,92,4.9,4.9,100,0.08,,SKC,0.08,VWS V13.01,2013-02-12 16:34:00,
2013-02-12 10:39:00,60.1,60.1,29.80,NE,49,4.9,8.1,100,0.08,,SKC,0.08,VWS V13.01,2013-02-12 16:39:00,
2013-02-12 10:44:00,60.3,60.3,29.80,ESE,102,5.8,5.8,100,0.08,,SKC,0.08,VWS V13.01,2013-02-12 16:44:00,
2013-02-12 10:49:00,60.3,60.3,29.80,SE,134,3.6,5.4,100,0.08,,SKC,0.08,VWS V13.01,2013-02-12 16:49:00,
2013-02-12 10:54:00,60.4,60.4,29.80,ESE,123,3.1,3.1,100,0.00,,SKC,0.08,VWS V13.01,2013-02-12 16:54:00,
2013-02-12 10:59:00,60.4,60.4,29.80,East,96,4.0,5.4,100,0.00,,SKC,0.08,VWS V13.01,2013-02-12 16:59:00,
2013-02-12 11:04:00,60.6,60.6,29.80,ESE,106,4.0,4.0,100,0.00,,SKC,0.08,VWS V13.01,2013-02-12 17:04:00,
2013-02-12 11:09:00,60.6,60.6,29.80,SSE,148,5.8,5.8,100,0.00,,SKC,0.08,VWS V13.01,2013-02-12 17:09:00,
2013-02-12 11:14:00,60.6,60.6,29.80,East,101,4.9,4.9,100,0.00,,SKC,0.08,VWS V13.01,2013-02-12 17:14:00,
2013-02-12 11:19:00,60.6,60.6,29.80,SSE,162,6.3,6.3,100,0.00,,SKC,0.08,VWS V13.01,2013-02-12 17:19:00,
2013-02-12 11:24:00,60.8,60.8,29.77,East,88,3.6,4.0,100,0.00,,SKC,0.08,VWS V13.01,2013-02-12 17:24:00,
2013-02-12 11:29:00,60.8,60.8,29.77,East,82,2.7,5.4,100,0.00,,SKC,0.08,VWS V13.01,2013-02-12 17:29:00,
2013-02-12 11:34:00,60.6,60.6,29.77,SE,132,6.3,6.3,100,0.00,,SKC,0.08,VWS V13.01,2013-02-12 17:34:00,
2013-02-12 11:39:00,60.8,60.8,29.77,ESE,107,3.6,5.4,100,0.04,,SKC,0.12,VWS V13.01,2013-02-12 17:39:00,
2013-02-12 11:44:00,60.8,60.8,29.77,ESE,114,3.6,3.6,100,0.04,,SKC,0.12,VWS V13.01,2013-02-12 17:44:00,
2013-02-12 11:49:00,61.0,61.0,29.77,SE,125,3.6,3.6,100,0.04,,SKC,0.12,VWS V13.01,2013-02-12 17:49:00,
2013-02-12 11:54:00,61.0,61.0,29.77,ESE,109,5.8,6.3,100,0.04,,SKC,0.12,VWS V13.01,2013-02-12 17:54:00,
2013-02-12 11:59:00,61.2,61.2,29.77,East,89,4.0,4.0,100,0.04,,SKC,0.12,VWS V13.01,2013-02-12 17:59:00,
2013-02-12 12:04:00,61.0,61.0,29.77,WSW,256,2.7,2.7,100,0.04,,SKC,0.12,VWS V13.01,2013-02-12 18:04:00,
2013-02-12 12:09:00,61.2,61.2,29.74,ESE,108,3.1,3.1,100,0.04,,SKC,0.12,VWS V13.01,2013-02-12 18:09:00,
2013-02-12 12:14:00,61.2,61.2,29.74,ESE,109,2.2,4.0,100,0.04,,SKC,0.12,VWS V13.01,2013-02-12 18:14:00,
2013-02-12 12:19:00,61.2,61.2,29.74,ESE,112,0.0,0.0,100,0.04,,SKC,0.12,VWS V13.01,2013-02-12 18:19:00,
2013-02-12 12:24:00,61.2,61.2,29.74,East,86,3.6,5.4,100,0.04,,SKC,0.12,VWS V13.01,2013-02-12 18:24:00,
2013-02-12 12:29:00,61.3,61.3,29.74,ESE,105,3.6,5.8,100,0.04,,SKC,0.12,VWS V13.01,2013-02-12 18:29:00,
2013-02-12 12:34:00,61.3,61.3,29.74,SE,135,4.0,5.8,100,0.04,,SKC,0.12,VWS V13.01,2013-02-12 18:34:00,
2013-02-12 12:39:00,61.5,61.5,29.71,SE,127,2.7,5.4,100,0.00,,SKC,0.12,VWS V13.01,2013-02-12 18:39:00,
2013-02-12 12:44:00,61.5,61.5,29.71,ESE,122,4.5,4.5,100,0.00,,SKC,0.12,VWS V13.01,2013-02-12 18:44:00,
2013-02-12 12:49:00,61.5,61.5,29.71,ESE,110,5.4,5.4,100,0.00,,SKC,0.12,VWS V13.01,2013-02-12 18:49:00,
2013-02-12 12:54:00,61.5,61.5,29.71,SE,127,3.6,3.6,100,0.00,,SKC,0.12,VWS V13.01,2013-02-12 18:54:00,
2013-02-12 12:59:00,61.7,61.7,29.71,ESE,123,9.2,9.2,100,0.00,,SKC,0.12,VWS V13.01,2013-02-12 18:59:00,
2013-02-12 13:04:00,61.9,61.9,29.71,SE,124,4.0,4.0,100,0.00,,SKC,0.12,VWS V13.01,2013-02-12 19:04:00,
2013-02-12 13:09:00,61.9,61.9,29.71,SSE,158,6.3,6.3,100,0.04,,SKC,0.16,VWS V13.01,2013-02-12 19:09:00,
2013-02-12 13:14:00,61.9,61.9,29.71,ESE,114,4.9,4.9,100,0.04,,SKC,0.16,VWS V13.01,2013-02-12 19:14:00,
2013-02-12 13:19:00,61.9,61.9,29.71,East,95,0.0,2.2,100,0.04,,SKC,0.16,VWS V13.01,2013-02-12 19:19:00,
2013-02-12 13:24:00,62.1,62.1,29.68,ENE,78,8.3,10.5,100,0.08,,SKC,0.20,VWS V13.01,2013-02-12 19:24:00,
2013-02-12 13:29:00,62.1,62.1,29.68,East,98,4.0,5.8,100,0.08,,SKC,0.20,VWS V13.01,2013-02-12 19:29:00,
2013-02-12 13:34:00,62.2,62.2,29.68,East,99,0.0,0.0,100,0.08,,SKC,0.20,VWS V13.01,2013-02-12 19:34:00,
2013-02-12 13:39:00,62.2,62.2,29.68,East,85,2.7,2.7,100,0.08,,SKC,0.20,VWS V13.01,2013-02-12 19:39:00,
2013-02-12 13:44:00,62.4,62.4,29.68,ESE,105,4.0,6.3,100,0.08,,SKC,0.20,VWS V13.01,2013-02-12 19:44:00,
2013-02-12 13:49:00,62.6,62.6,29.68,ENE,78,4.5,4.5,100,0.08,,SKC,0.20,VWS V13.01,2013-02-12 19:49:00,
2013-02-12 13:54:00,62.8,62.8,29.68,NNE,31,0.0,4.9,100,0.08,,SKC,0.20,VWS V13.01,2013-02-12 19:54:00,
2013-02-12 13:59:00,63.0,63.0,29.68,SSE,153,0.0,0.0,100,0.08,,SKC,0.20,VWS V13.01,2013-02-12 19:59:00,
2013-02-12 14:04:00,63.1,63.1,29.68,SW,214,0.0,0.0,100,0.08,,SKC,0.20,VWS V13.01,2013-02-12 20:04:00,
2013-02-12 14:09:00,63.3,63.3,29.68,SW,236,0.0,0.0,100,0.04,,SKC,0.20,VWS V13.01,2013-02-12 20:09:00,
2013-02-12 14:14:00,63.5,63.5,29.68,ENE,57,2.2,2.2,100,0.04,,SKC,0.20,VWS V13.01,2013-02-12 20:14:00,
2013-02-12 14:19:00,63.7,63.7,29.68,ESE,118,0.0,3.1,100,0.04,,SKC,0.20,VWS V13.01,2013-02-12 20:19:00,
2013-02-12 14:24:00,63.9,63.9,29.65,SE,126,0.0,0.0,100,0.00,,SKC,0.20,VWS V13.01,2013-02-12 20:24:00,
2013-02-12 14:29:00,64.2,64.2,29.65,ESE,123,0.0,0.0,100,0.00,,SKC,0.20,VWS V13.01,2013-02-12 20:29:00,
2013-02-12 14:34:00,64.4,64.4,29.65,ESE,108,0.0,4.0,100,0.00,,SKC,0.20,VWS V13.01,2013-02-12 20:34:00,
2013-02-12 14:39:00,64.8,64.8,29.65,SSW,199,0.0,0.0,100,0.00,,SKC,0.20,VWS V13.01,2013-02-12 20:39:00,
2013-02-12 14:44:00,65.1,65.1,29.65,SE,145,0.0,0.0,100,0.00,,SKC,0.20,VWS V13.01,2013-02-12 20:44:00,
2013-02-12 14:49:00,65.5,65.5,29.65,West,260,0.0,0.0,100,0.00,,SKC,0.20,VWS V13.01,2013-02-12 20:49:00,
2013-02-12 14:54:00,66.0,66.0,29.65,SW,231,3.1,3.6,100,0.00,,SKC,0.20,VWS V13.01,2013-02-12 20:54:00,
2013-02-12 14:59:00,66.4,66.4,29.65,SSW,199,0.0,2.2,100,0.00,,SKC,0.20,VWS V13.01,2013-02-12 20:59:00,
2013-02-12 15:04:00,66.6,66.6,29.65,SSW,210,5.4,5.8,100,0.00,,SKC,0.20,VWS V13.01,2013-02-12 21:04:00,
2013-02-12 15:09:00,66.7,66.7,29.65,SW,227,0.0,4.0,100,0.00,,SKC,0.20,VWS V13.01,2013-02-12 21:09:00,
2013-02-12 15:14:00,66.9,66.9,29.65,SW,219,0.0,3.1,100,0.00,,SKC,0.20,VWS V13.01,2013-02-12 21:14:00,
2013-02-12 15:19:00,67.1,67.1,29.65,SSW,209,2.7,5.4,100,0.00,,SKC,0.20,VWS V13.01,2013-02-12 21:19:00,
2013-02-12 15:24:00,67.1,67.1,29.62,SSW,207,5.4,6.3,100,0.00,,SKC,0.20,VWS V13.01,2013-02-12 21:24:00,
2013-02-12 15:29:00,67.3,67.3,29.62,SW,228,4.0,5.8,100,0.00,,SKC,0.20,VWS V13.01,2013-02-12 21:29:00,
2013-02-12 15:34:00,67.3,67.3,29.62,SW,226,4.9,6.3,100,0.00,,SKC,0.20,VWS V13.01,2013-02-12 21:34:00,
2013-02-12 15:39:00,67.5,67.5,29.62,WSW,239,8.3,8.3,100,0.00,,SKC,0.20,VWS V13.01,2013-02-12 21:39:00,
2013-02-12 15:44:00,67.6,67.6,29.62,SSW,207,3.6,6.3,100,0.00,,SKC,0.20,VWS V13.01,2013-02-12 21:44:00,
2013-02-12 15:49:00,67.6,67.6,29.62,West,262,5.8,8.1,100,0.00,,SKC,0.20,VWS V13.01,2013-02-12 21:49:00,
2013-02-12 15:54:00,67.8,67.8,29.62,SW,231,10.1,10.1,100,0.00,,SKC,0.20,VWS V13.01,2013-02-12 21:54:00,
2013-02-12 15:59:00,67.8,67.8,29.62,WSW,239,3.6,6.3,100,0.00,,SKC,0.20,VWS V13.01,2013-02-12 21:59:00,
2013-02-12 16:04:00,68.0,68.0,29.62,SW,223,5.4,8.7,100,0.00,,SKC,0.20,VWS V13.01,2013-02-12 22:04:00,
2013-02-12 16:09:00,68.2,68.2,29.62,SSW,202,6.3,8.1,100,0.00,,SKC,0.20,VWS V13.01,2013-02-12 22:09:00,
2013-02-12 16:14:00,68.0,68.0,29.62,SW,227,4.0,4.0,100,0.00,,SKC,0.20,VWS V13.01,2013-02-12 22:14:00,
2013-02-12 16:19:00,68.0,68.0,29.62,WNW,293,4.0,6.3,100,0.00,,SKC,0.20,VWS V13.01,2013-02-12 22:19:00,
2013-02-12 16:24:00,68.0,68.0,29.62,SW,218,2.7,10.1,100,0.00,,SKC,0.20,VWS V13.01,2013-02-12 22:24:00,
2013-02-12 16:28:00,68.0,68.0,29.62,South,182,2.2,5.4,100,0.00,,SKC,0.20,VWS V13.01,2013-02-12 22:28:00,
2013-02-12 16:33:00,67.8,67.8,29.62,WSW,241,3.1,3.1,100,0.00,,SKC,0.20,VWS V13.01,2013-02-12 22:33:00,
2013-02-12 16:38:00,67.8,67.8,29.62,SSW,210,0.0,3.6,100,0.00,,SKC,0.20,VWS V13.01,2013-02-12 22:38:00,
2013-02-12 16:43:00,67.6,67.6,29.62,SW,222,5.4,5.8,100,0.00,,SKC,0.20,VWS V13.01,2013-02-12 22:43:00,
2013-02-12 16:48:00,67.6,67.6,29.62,WSW,245,0.0,2.2,100,0.00,,SKC,0.20,VWS V13.01,2013-02-12 22:48:00,
2013-02-12 16:53:00,67.5,67.5,29.62,SW,220,3.1,3.1,100,0.00,,SKC,0.20,VWS V13.01,2013-02-12 22:53:00,
2013-02-12 16:58:00,67.5,67.5,29.62,SW,229,2.2,4.9,100,0.00,,SKC,0.20,VWS V13.01,2013-02-12 22:58:00,
2013-02-12 17:03:00,67.5,67.5,29.62,SW,233,0.0,5.4,100,0.00,,SKC,0.20,VWS V13.01,2013-02-12 23:03:00,
2013-02-12 17:08:00,67.3,67.3,29.62,WSW,252,8.1,8.1,100,0.00,,SKC,0.20,VWS V13.01,2013-02-12 23:08:00,
2013-02-12 17:13:00,67.3,67.3,29.62,WSW,238,0.0,4.9,100,0.00,,SKC,0.20,VWS V13.01,2013-02-12 23:13:00,
2013-02-12 17:18:00,67.3,67.3,29.62,SSW,209,5.8,5.8,100,0.00,,SKC,0.20,VWS V13.01,2013-02-12 23:18:00,
2013-02-12 17:23:00,67.3,67.3,29.62,SW,227,4.9,8.1,100,0.00,,SKC,0.20,VWS V13.01,2013-02-12 23:23:00,
2013-02-12 17:28:00,67.3,67.3,29.62,SW,236,3.6,3.6,100,0.00,,SKC,0.20,VWS V13.01,2013-02-12 23:28:00,
2013-02-12 17:33:00,67.5,67.5,29.62,West,265,8.1,8.7,100,0.00,,SKC,0.20,VWS V13.01,2013-02-12 23:33:00,
2013-02-12 17:38:00,67.6,67.6,29.62,SSW,203,4.0,10.5,100,0.00,,SKC,0.20,VWS V13.01,2013-02-12 23:38:00,
2013-02-12 17:43:00,67.8,67.8,29.62,NNW,331,5.8,5.8,100,0.00,,SKC,0.20,VWS V13.01,2013-02-12 23:43:00,
2013-02-12 17:48:00,67.8,67.8,29.62,SSW,203,5.4,5.4,100,0.00,,SKC,0.20,VWS V13.01,2013-02-12 23:48:00,
2013-02-12 17:53:00,67.6,67.6,29.62,WSW,240,2.7,5.4,100,0.00,,SKC,0.20,VWS V13.01,2013-02-12 23:53:00,
2013-02-12 17:58:00,67.8,67.8,29.62,WSW,237,8.1,8.1,100,0.00,,SKC,0.20,VWS V13.01,2013-02-12 23:58:00,
2013-02-12 18:03:00,67.8,67.8,29.62,West,268,3.6,7.2,100,0.00,,SKC,0.20,VWS V13.01,2013-02-13 00:03:00,
2013-02-12 18:08:00,67.8,67.8,29.62,SW,230,7.6,9.6,100,0.00,,SKC,0.20,VWS V13.01,2013-02-13 00:08:00,
2013-02-12 18:13:00,68.0,68.0,29.62,WSW,239,3.1,5.4,100,0.00,,SKC,0.20,VWS V13.01,2013-02-13 00:13:00,
2013-02-12 18:18:00,68.0,68.0,29.62,West,261,3.6,3.6,100,0.00,,SKC,0.20,VWS V13.01,2013-02-13 00:18:00,
2013-02-12 18:23:00,68.2,68.2,29.62,WSW,244,2.7,5.8,100,0.00,,SKC,0.20,VWS V13.01,2013-02-13 00:23:00,
2013-02-12 18:28:00,68.2,68.2,29.62,West,280,5.4,5.4,100,0.00,,SKC,0.20,VWS V13.01,2013-02-13 00:28:00,
2013-02-12 18:33:00,68.2,68.2,29.62,SSW,204,3.1,10.1,100,0.00,,SKC,0.20,VWS V13.01,2013-02-13 00:33:00,
2013-02-12 18:38:00,68.4,68.4,29.62,WSW,249,5.4,5.4,100,0.00,,SKC,0.20,VWS V13.01,2013-02-13 00:38:00,
2013-02-12 18:43:00,68.4,68.4,29.62,SW,216,4.0,11.0,100,0.00,,SKC,0.20,VWS V13.01,2013-02-13 00:43:00,
2013-02-12 18:48:00,68.4,68.4,29.62,West,279,10.1,10.1,100,0.00,,SKC,0.20,VWS V13.01,2013-02-13 00:48:00,
2013-02-12 18:53:00,68.2,68.2,29.62,West,265,5.8,5.8,100,0.00,,SKC,0.20,VWS V13.01,2013-02-13 00:53:00,
2013-02-12 18:58:00,68.2,68.2,29.62,SW,230,6.3,6.3,100,0.00,,SKC,0.20,VWS V13.01,2013-02-13 00:58:00,
2013-02-12 19:03:00,68.4,68.4,29.62,WSW,251,3.6,4.0,100,0.00,,SKC,0.20,VWS V13.01,2013-02-13 01:03:00,
2013-02-12 19:08:00,68.4,68.4,29.62,West,264,7.6,11.0,100,0.00,,SKC,0.20,VWS V13.01,2013-02-13 01:08:00,
2013-02-12 19:13:00,68.4,68.4,29.62,WSW,246,4.0,5.4,100,0.00,,SKC,0.20,VWS V13.01,2013-02-13 01:13:00,
2013-02-12 19:18:00,68.4,68.4,29.62,West,265,4.0,5.8,100,0.00,,SKC,0.20,VWS V13.01,2013-02-13 01:18:00,
2013-02-12 19:23:00,68.4,68.4,29.65,SSW,211,3.6,3.6,100,0.00,,SKC,0.20,VWS V13.01,2013-02-13 01:23:00,
2013-02-12 19:28:00,68.5,68.5,29.65,West,271,8.3,11.0,100,0.00,,SKC,0.20,VWS V13.01,2013-02-13 01:28:00,
2013-02-12 19:33:00,68.5,68.5,29.65,WSW,242,4.9,4.9,100,0.00,,SKC,0.20,VWS V13.01,2013-02-13 01:33:00,
2013-02-12 19:38:00,68.5,68.5,29.65,WSW,239,2.2,5.4,100,0.00,,SKC,0.20,VWS V13.01,2013-02-13 01:38:00,
2013-02-12 19:43:00,68.5,68.5,29.65,NNW,340,3.6,3.6,100,0.00,,SKC,0.20,VWS V13.01,2013-02-13 01:43:00,
2013-02-12 19:48:00,68.5,68.5,29.65,SSW,198,3.6,3.6,100,0.00,,SKC,0.20,VWS V13.01,2013-02-13 01:48:00,
2013-02-12 19:53:00,68.5,68.5,29.65,WSW,257,6.3,6.3,100,0.00,,SKC,0.20,VWS V13.01,2013-02-13 01:53:00,
2013-02-12 19:58:00,68.5,68.5,29.65,WSW,237,5.8,8.7,100,0.00,,SKC,0.20,VWS V13.01,2013-02-13 01:58:00,
2013-02-12 20:03:00,68.5,68.5,29.65,WSW,258,7.6,7.6,100,0.00,,SKC,0.20,VWS V13.01,2013-02-13 02:03:00,
2013-02-12 20:08:00,68.5,68.5,29.65,SW,220,6.3,6.3,100,0.00,,SKC,0.20,VWS V13.01,2013-02-13 02:08:00,
2013-02-12 20:13:00,68.5,68.5,29.65,SW,229,0.0,0.0,100,0.00,,SKC,0.20,VWS V13.01,2013-02-13 02:13:00,
2013-02-12 20:18:00,68.5,68.5,29.65,WSW,254,5.4,7.6,100,0.00,,SKC,0.20,VWS V13.01,2013-02-13 02:18:00,
2013-02-12 20:23:00,68.4,68.4,29.65,WSW,249,6.3,6.3,100,0.00,,SKC,0.20,VWS V13.01,2013-02-13 02:23:00,
2013-02-12 20:28:00,68.5,68.5,29.65,WSW,243,3.6,4.0,100,0.00,,SKC,0.20,VWS V13.01,2013-02-13 02:28:00,
2013-02-12 20:33:00,68.2,68.2,29.65,WSW,249,5.4,5.4,100,0.00,,SKC,0.20,VWS V13.01,2013-02-13 02:33:00,
2013-02-12 20:38:00,68.2,68.2,29.65,WSW,258,6.3,6.3,100,0.00,,SKC,0.20,VWS V13.01,2013-02-13 02:38:00,
2013-02-12 20:43:00,68.0,68.0,29.65,West,267,8.1,8.1,100,0.00,,SKC,0.20,VWS V13.01,2013-02-13 02:43:00,
2013-02-12 20:48:00,68.0,68.0,29.65,WSW,238,6.3,6.3,100,0.00,,SKC,0.20,VWS V13.01,2013-02-13 02:48:00,
2013-02-12 20:53:00,68.0,68.0,29.65,WSW,242,0.0,3.1,100,0.00,,SKC,0.20,VWS V13.01,2013-02-13 02:53:00,
2013-02-12 20:58:00,68.0,68.0,29.65,WSW,246,2.7,2.7,100,0.00,,SKC,0.20,VWS V13.01,2013-02-13 02:58:00,
2013-02-12 21:03:00,68.0,68.0,29.65,SW,229,3.1,3.6,100,0.00,,SKC,0.20,VWS V13.01,2013-02-13 03:03:00,
2013-02-12 21:08:00,67.8,67.8,29.65,WSW,252,3.6,4.9,100,0.00,,SKC,0.20,VWS V13.01,2013-02-13 03:08:00,
2013-02-12 21:13:00,67.8,67.8,29.65,SW,236,5.4,5.4,100,0.00,,SKC,0.20,VWS V13.01,2013-02-13 03:13:00,
2013-02-12 21:18:00,67.6,67.6,29.65,WSW,252,4.0,4.0,100,0.00,,SKC,0.20,VWS V13.01,2013-02-13 03:18:00,
2013-02-12 21:23:00,67.6,67.6,29.65,SW,231,0.0,4.9,100,0.00,,SKC,0.20,VWS V13.01,2013-02-13 03:23:00,
2013-02-12 21:28:00,67.5,67.5,29.65,WSW,245,4.0,4.0,100,0.00,,SKC,0.20,VWS V13.01,2013-02-13 03:28:00,
2013-02-12 21:33:00,67.5,67.5,29.65,SSW,210,3.1,5.4,100,0.00,,SKC,0.20,VWS V13.01,2013-02-13 03:33:00,
2013-02-12 21:38:00,67.5,67.5,29.65,WSW,252,8.3,8.3,100,0.00,,SKC,0.20,VWS V13.01,2013-02-13 03:38:00,
2013-02-12 21:43:00,67.6,67.6,29.65,SW,236,3.1,4.0,100,0.00,,SKC,0.20,VWS V13.01,2013-02-13 03:43:00,
2013-02-12 21:48:00,67.6,67.6,29.65,West,270,3.1,5.4,100,0.00,,SKC,0.20,VWS V13.01,2013-02-13 03:48:00,
2013-02-12 21:53:00,67.6,67.6,29.65,WSW,247,4.0,4.0,100,0.00,,SKC,0.20,VWS V13.01,2013-02-13 03:53:00,
2013-02-12 21:58:00,67.6,67.6,29.65,WSW,258,3.6,5.8,100,0.00,,SKC,0.20,VWS V13.01,2013-02-13 03:58:00,
2013-02-12 23:00:00,67.6,67.6,29.68,WNW,286,2.2,2.2,100,0.00,,SKC,0.20,VWS V13.01,2013-02-13 05:00:00,
2013-02-12 23:05:00,67.6,67.6,29.68,NW,318,3.6,3.6,100,0.00,,SKC,0.20,VWS V13.01,2013-02-13 05:05:00,
2013-02-12 23:10:00,67.6,67.6,29.65,WNW,289,0.0,2.2,100,0.00,,SKC,0.20,VWS V13.01,2013-02-13 05:10:00,
2013-02-12 23:15:00,67.5,67.5,29.65,WSW,252,3.6,3.6,100,0.00,,SKC,0.20,VWS V13.01,2013-02-13 05:15:00,
2013-02-12 23:20:00,67.5,67.5,29.65,WSW,249,5.8,5.8,100,0.00,,SKC,0.20,VWS V13.01,2013-02-13 05:20:00,
2013-02-12 23:25:00,67.5,67.5,29.65,WSW,247,3.6,3.6,100,0.00,,SKC,0.20,VWS V13.01,2013-02-13 05:25:00,
2013-02-12 23:30:00,67.3,67.3,29.65,SW,218,2.7,3.1,100,0.00,,SKC,0.20,VWS V13.01,2013-02-13 05:30:00,
2013-02-12 23:35:00,67.1,67.1,29.65,SW,227,0.0,0.0,100,0.00,,SKC,0.20,VWS V13.01,2013-02-13 05:35:00,
2013-02-12 23:40:00,66.9,66.9,29.65,WSW,243,0.0,0.0,100,0.00,,SKC,0.20,VWS V13.01,2013-02-13 05:40:00,
2013-02-12 23:45:00,66.7,66.7,29.65,WSW,244,0.0,0.0,100,0.00,,SKC,0.20,VWS V13.01,2013-02-13 05:45:00,
2013-02-12 23:50:00,66.6,66.6,29.65,West,273,0.0,0.0,100,0.00,,SKC,0.20,VWS V13.01,2013-02-13 05:50:00,
2013-02-12 23:55:00,66.4,66.4,29.65,WNW,298,0.0,0.0,100,0.00,,SKC,0.20,VWS V13.01,2013-02-13 05:55:00,